Regional Weather Roundup
Issued by NWS

Home | Current Version | Previous Version | Text Only | Print | Product List | Glossary On
Versions: 1 2 3 4 5 6 7 8 9 10 11 12 13 14 15 16 17 18 19 20 21 22 23 24 25 26 27 28 29 30 31 32 33 34 35 36 37 38 39 40 41 42 43 44 45 46 47 48 49 50
000
ASUS43 KTOP 241208
RWRKS

WEATHER ROUNDUP FOR KANSAS
NATIONAL WEATHER SERVICE GOODLAND KS
700 AM CDT MON APR 24 2017

NOTE:  "FAIR" INDICATES FEW OR NO CLOUDS BELOW 12,000 FEET WITH NO
SIGNIFICANT WEATHER AND/OR OBSTRUCTIONS TO VISIBILITY.

KSZ001>006-013>018-027>032-041>047-241300-
NORTHWEST KANSAS

CITY           SKY/WX    TMP DP  RH WIND       PRES   REMARKS
GOODLAND       CLOUDY    50  40  68 W12       29.57R
6HR MIN TEMP:  48; 6HR MAX TEMP:  54;

HAYS           CLOUDY    52  36  54 S21G32    29.64F
HILL CITY      CLOUDY    53  37  54 S13G25    29.58S
6HR MIN TEMP:  52; 6HR MAX TEMP:  55;

RUSSELL        CLOUDY    52  36  54 S31G40    29.65F
6HR MIN TEMP:  51; 6HR MAX TEMP:  53;

$$

KSZ061>065-074>080-084>089-241300-
SOUTHWEST KANSAS

CITY           SKY/WX    TMP DP  RH WIND       PRES   REMARKS
DODGE CITY     CLOUDY    49  36  61 S18G26    29.69F
6HR MIN TEMP:  49; 6HR MAX TEMP:  51;

ELKHART          N/A    N/A N/A N/A MISG        N/A
GARDEN CITY    PTCLDY    50  34  54 S16G24    29.63S
6HR MIN TEMP:  50; 6HR MAX TEMP:  52;

GREAT BEND     CLEAR     53  36  52 S28G38    29.68F
PRATT          CLEAR     47  35  63 S21G29    29.75F
6HR MIN TEMP:  46; 6HR MAX TEMP:  51;

$$

KSZ066>073-081>083-090>101-241300-
SOUTHEAST KANSAS

CITY           SKY/WX    TMP DP  RH WIND       PRES   REMARKS
CHANUTE        CLEAR     46  40  79 SE10      29.91F
6HR MIN TEMP:  39; 6HR MAX TEMP:  46;

COFFEYVILLE    CLEAR     44  41  89 MISG      29.94F
6HR MIN TEMP:  39; 6HR MAX TEMP:  46;

HUTCHINSON     CLEAR     51  38  60 S18       29.79F
6HR MIN TEMP:  48; 6HR MAX TEMP:  53;

MEDICINE LODGE   N/A     47  38  71 S12G21    29.80F
NEWTON         PTCLDY    48  39  71 S17       29.83F
PARSONS        CLEAR     48  40  73 SE5       29.94F
6HR MIN TEMP:  40; 6HR MAX TEMP:  48;

WICHITA INTL   CLOUDY    48  40  73 S15       29.83F
6HR MIN TEMP:  46; 6HR MAX TEMP:  50;

WICHITA JABRA  CLOUDY    48  39  71 S14       29.84F
6HR MIN TEMP:  47; 6HR MAX TEMP:  50;

WICHITA MCCONL CLOUDY    49  38  65 S15       29.85F
WINFIELD       CLEAR     47  40  76 S9        29.89F
6HR MIN TEMP:  43; 6HR MAX TEMP:  50;

$$

KSZ007>012-019>026-033>040-048>060-102>105-241300-
NORTHEAST KANSAS

CITY           SKY/WX    TMP DP  RH WIND       PRES   REMARKS
CONCORDIA      CLOUDY    50  38  63 S22G30    29.72F
6HR MIN TEMP:  49; 6HR MAX TEMP:  53;

EMPORIA        CLEAR     46  40  79 S14       29.86F
6HR MIN TEMP:  44; 6HR MAX TEMP:  48;

LAWRENCE       CLOUDY    44  40  85 SE9       29.90S
6HR MIN TEMP:  42; 6HR MAX TEMP:  46;

MANHATTAN      CLOUDY    51  38  60 S13       29.82F
6HR MIN TEMP:  48; 6HR MAX TEMP:  53;

MARYSVILLE     CLOUDY    50  37  62 S13G20    29.80F
OLATHE IND     CLEAR     46  38  73 S9        29.92S
6HR MIN TEMP:  42; 6HR MAX TEMP:  48;

OLATHE EXE     CLEAR     42  38  85 SE6       29.92F
6HR MIN TEMP:  42; 6HR MAX TEMP:  51;

SALINA         CLEAR     53  38  56 S22G31    29.77F
6HR MIN TEMP:  49; 6HR MAX TEMP:  54;

TOPEKA BILLARD CLOUDY    47  39  74 SE6       29.87F
6HR MIN TEMP:  46; 6HR MAX TEMP:  55;

TOPEKA FORBES  CLEAR     50  39  66 S10       29.87S
6HR MIN TEMP:  46; 6HR MAX TEMP:  52;

$$



USA.gov is the U.S. government's official web portal to all federal, state and local government web resources and services.